Temperature
18 17 17 16 16 16 15 15 14 14 13 13 13 13 13 13 13 13 13 13 13 13 13 14 14 14 14 14 14 14 15 15 15 15 16 16 17 17 17 17 18 18 18
17 17 17 16 16 15 15 14 14 13 13 13 13 13 12 12 12 13 13 13 13 13 13 13 13 14 14 14 14 14 14 15 15 15 15 15 16 17 17 17 17 17 18
18 17 17 16 16 15 15 14 14 13 13 13 13 13 12 12 12 12 13 13 13 13 13 13 13 13 13 13 14 14 14 14 14 14 14 15 16 16 17 17 17 17 17
18 17 17 16 16 15 15 14 13 13 13 13 12 12 12 12 12 12 12 12 12 12 12 13 13 13 13 13 13 13 14 14 14 14 14 14 15 15 16 17 17 17 17
18 17 17 16 16 15 15 14 13 13 13 13 12 12 12 12 12 12 12 12 12 12 12 12 13 13 13 13 13 13 13 13 14 14 14 14 14 15 15 15 16 16 17
18 17 17 16 16 15 15 14 13 13 13 13 12 12 12 12 12 12 12 12 12 12 12 12 12 12 13 13 13 13 13 13 13 14 14 14 14 14 15 15 15 16 16
18 17 17 16 16 15 15 14 14 13 13 13 12 12 12 12 12 12 12 12 12 12 12 12 12 12 12 13 13 13 13 13 13 13 14 14 14 14 14 14 15 15 16
18 18 17 16 16 15 15 14 14 13 13 13 12 12 12 12 12 12 12 12 12 12 12 12 12 12 12 12 13 13 13 13 13 13 13 14 14 14 14 14 14 14 15
18 18 17 16 16 15 15 14 14 13 13 13 12 12 12 12 12 12 11 11 12 12 12 12 12 12 12 12 12 13 13 13 13 13 13 13 14 14 14 14 14 14 14
18 18 17 17 16 16 15 14 14 14 13 13 13 12 12 12 12 12 12 12 12 12 12 12 12 12 12 12 12 13 13 13 13 13 13 13 14 14 14 14 14 14 14
18 18 17 17 16 16 15 15 14 14 13 13 13 13 12 12 12 12 12 12 12 12 12 12 12 12 12 12 12 12 12 13 13 13 13 13 13 13 13 13 14 14 14
19 18 18 17 16 16 15 15 15 14 14 13 13 13 12 12 12 12 12 12 12 12 12 12 12 12 12 12 12 12 12 12 13 13 13 13 13 13 13 13 13 13 14
19 18 18 17 17 16 16 15 15 14 14 14 13 13 13 13 12 12 12 12 12 12 12 12 12 12 12 12 12 12 12 12 12 13 13 12 13 13 13 13 13 13 13
19 18 18 17 17 16 16 16 15 15 14 14 14 13 13 13 12 12 12 12 12 12 12 12 12 12 12 12 12 12 12 12 12 12 12 12 12 12 13 13 13 13 13
19 19 18 18 17 17 16 16 15 15 15 14 14 13 13 13 13 12 12 12 12 12 12 12 12 12 12 12 12 12 12 12 12 12 12 12 12 12 12 13 13 13 13
19 19 19 18 18 17 17 16 16 15 15 14 14 14 13 13 13 13 12 12 12 12 12 12 12 12 12 12 12 12 12 12 12 12 12 12 12 12 12 12 12 12 13
20 19 19 18 18 17 17 17 16 16 15 15 14 14 14 13 13 13 13 12 12 12 12 12 12 12 12 12 12 12 12 12 12 12 12 12 12 12 12 12 12 12 12
20 19 19 18 18 18 17 17 16 16 15 15 15 14 14 14 13 13 13 13 13 12 12 12 12 12 12 12 12 12 12 12 12 12 12 12 12 12 12 12 12 12 12
20 19 19 18 18 18 17 17 16 16 16 15 15 15 14 14 14 14 13 13 13 13 13 12 12 12 12 12 12 12 12 12 12 12 12 11 12 11 11 12 12 12 12
19 19 19 18 18 17 17 17 17 16 16 16 15 15 15 14 14 14 14 14 13 13 13 13 13 12 12 12 12 12 12 12 12 12 12 12 12 12 11 11 12 12 12
19 19 18 18 18 17 17 17 16 16 16 16 15 15 15 15 14 14 14 14 14 13 13 13 13 13 12 12 12 12 12 12 12 12 12 12 12 11 11 11 12 12 12
19 18 18 18 18 17 17 17 16 16 16 16 15 15 15 15 15 14 14 14 14 14 14 13 13 13 13 13 12 12 12 12 12 12 12 12 11 11 11 11 11 12 12
19 18 18 18 17 17 17 17 16 16 16 15 15 15 15 15 15 14 14 14 14 14 14 14 14 13 13 13 13 12 12 12 12 12 12 12 11 11 11 11 11 11 11
19 18 18 17 17 17 17 16 16 16 16 15 15 15 15 15 15 14 14 14 14 14 14 14 14 13 13 13 13 13 12 12 12 12 12 12 12 12 11 11 11 11 11
18 18 18 17 17 16 16 16 16 16 15 15 15 15 14 14 14 14 14 14 14 13 13 13 13 13 13 13 13 13 13 12 12 12 12 12 12 12 12 11 11 11 11
18 18 17 17 16 16 16 16 15 15 15 15 14 14 14 14 14 14 14 13 13 13 13 13 13 13 13 13 13 13 13 12 12 12 12 12 11 11 11 11 11 11 11
Wind_Speed
6 5 6 6 5 5 5 3 3 3 3 3 3 3 4 4 4 4 5 5 5 5 3 3 3 2 1 2 2 2 2 2 2 1 2 3 3 4 4 4 5 6 8
6 5 5 5 5 4 4 3 3 2 2 1 2 2 3 3 3 4 5 6 5 5 3 3 2 2 1 2 1 1 1 1 2 2 1 2 2 3 4 3 5 6 5
9 7 6 5 5 4 3 3 2 1 2 2 2 3 3 3 4 5 5 5 6 5 4 3 2 2 1 1 2 1 2 2 2 2 3 2 3 2 2 3 3 4 4
8 7 7 6 5 4 3 3 2 0 1 2 2 3 2 3 4 4 4 6 5 5 4 4 3 2 1 2 2 1 2 2 2 2 3 3 2 2 2 2 2 3 4
9 9 8 7 5 4 3 3 1 1 2 2 2 2 2 3 3 4 5 5 5 5 5 4 3 2 2 2 2 2 2 2 3 3 2 2 2 2 2 2 2 2 3
8 7 7 6 4 3 3 2 1 1 2 2 2 1 2 3 4 5 5 5 4 4 5 4 3 3 2 3 3 3 3 2 3 3 3 3 2 3 3 3 2 3 3
8 8 7 6 5 4 3 3 2 1 2 2 2 2 2 2 3 3 4 4 4 4 5 5 4 3 3 3 3 3 3 2 3 3 3 3 4 3 3 3 2 2 2
8 8 8 7 6 6 5 3 3 1 2 2 2 2 2 1 2 3 3 3 3 4 5 5 4 4 3 3 2 2 3 2 2 3 3 3 3 3 4 3 3 2 2
9 8 8 7 6 6 5 5 4 2 1 1 1 1 2 2 3 3 3 3 4 4 5 5 5 4 3 3 2 2 3 2 2 2 2 2 3 3 4 3 4 4 3
8 8 7 7 6 5 5 4 4 3 2 1 0 1 2 3 3 3 4 4 5 5 6 6 6 5 4 4 3 2 3 2 2 2 2 2 2 2 2 3 4 4 4
9 8 7 7 6 5 5 5 4 3 2 2 1 1 2 3 3 3 3 4 4 5 6 6 6 6 5 5 4 4 4 3 3 3 2 2 2 2 2 2 3 4 4
8 8 8 6 5 5 5 5 5 4 4 3 1 0 1 2 3 3 4 4 4 5 5 5 6 6 6 5 5 5 5 4 4 3 2 3 2 2 2 2 3 3 4
8 7 7 7 7 7 6 6 6 5 4 3 2 0 1 1 2 3 3 4 4 5 5 5 5 5 5 5 5 4 4 4 3 3 2 2 2 2 2 2 3 3 3
9 8 7 7 7 7 6 6 6 6 5 4 3 2 1 1 1 2 3 3 3 4 4 4 4 4 4 4 5 5 5 5 4 4 3 2 2 2 3 3 2 2 3
8 9 8 8 7 6 6 6 6 6 5 5 4 4 3 2 1 2 2 3 3 4 3 4 5 5 4 3 4 4 5 5 5 5 4 3 3 3 2 2 2 2 2
9 9 9 8 7 7 7 7 7 6 5 6 5 4 3 2 2 2 2 2 4 4 3 4 4 5 4 6 6 5 4 4 4 5 5 5 4 5 5 4 2 2 3
8 8 9 9 8 8 8 8 8 6 6 6 5 5 4 3 3 2 2 3 3 3 3 4 4 4 6 7 7 6 4 3 3 3 4 4 4 5 4 5 5 3 4
8 8 7 7 7 7 7 7 6 6 6 5 5 5 5 4 3 3 3 4 3 3 3 4 4 4 6 7 6 6 4 3 4 3 3 3 4 4 4 4 4 4 4
7 6 6 6 6 6 6 6 5 5 5 5 6 6 6 5 4 4 5 4 3 3 4 4 5 5 6 7 6 4 2 3 4 4 4 4 4 6 5 4 4 4 5
6 6 5 5 5 5 6 7 5 5 6 6 6 6 6 6 6 6 5 4 3 4 5 5 5 5 6 7 6 3 1 2 3 4 5 6 6 6 5 3 3 4 5
7 7 7 5 5 6 7 6 5 5 7 6 5 5 5 6 6 5 4 4 4 4 5 6 6 5 6 7 6 4 1 2 2 3 4 5 8 7 7 5 3 5 5
7 7 6 5 3 5 6 5 4 5 5 5 5 5 5 5 4 5 5 4 4 4 5 5 6 5 5 6 6 6 4 3 2 3 4 5 9 9 9 6 5 6 4
7 5 6 5 2 3 5 4 3 3 3 3 4 5 5 5 5 5 5 4 3 3 4 4 5 5 4 5 7 7 6 5 3 4 7 8 10 9 7 7 8 6 2
6 6 7 6 3 1 2 1 1 1 2 2 3 3 4 5 4 4 4 4 4 4 5 5 5 5 4 4 4 3 3 4 3 4 6 8 8 7 7 6 5 3 2
5 6 7 6 4 4 4 3 2 2 2 0 2 3 3 3 4 4 4 5 5 5 5 5 5 5 6 7 7 5 4 3 3 3 3 3 4 5 5 5 5 4 3
7 7 7 6 5 5 5 4 3 3 3 3 3 2 2 3 3 3 4 5 5 7 5 5 5 5 8 9 7 8 7 5 2 1 3 4 5 5 6 6 6 5 4
Wind_Direction
163 149 141 132 112 88 83 72 60 26 18 6 354 345 338 330 330 329 334 337 338 339 334 326 316 319 290 269 259 236 235 234 193 187 288 276 246 231 223 210 198 210 215
152 150 142 127 114 107 96 77 64 41 14 345 314 291 296 301 303 319 332 336 333 334 335 332 319 310 303 320 307 256 234 232 175 159 178 288 302 263 232 209 207 212 208
165 163 148 139 130 124 123 101 93 63 12 355 347 345 349 339 342 338 335 326 328 328 327 317 319 317 317 293 280 248 203 230 229 188 176 187 230 283 285 223 214 204 203
163 161 154 151 152 161 148 128 126 88 345 6 13 2 354 331 308 308 314 323 329 331 329 322 319 319 313 296 285 263 221 202 224 235 219 210 191 207 301 308 248 213 210
165 163 162 164 165 167 157 152 154 280 326 358 10 7 343 316 314 323 334 336 332 332 334 330 330 320 308 295 289 285 254 212 207 211 214 219 218 209 209 265 282 265 229
165 160 162 161 163 167 163 155 153 285 322 350 8 12 346 342 347 343 341 337 331 330 334 329 333 320 308 304 293 277 263 241 229 222 210 196 201 207 202 231 253 258 255
162 162 165 171 177 183 186 177 164 263 306 336 349 330 325 334 335 325 331 333 332 325 324 329 319 312 302 298 302 296 282 256 244 232 223 210 212 205 195 209 234 249 264
176 176 180 181 188 192 187 184 182 221 287 317 318 314 328 323 318 317 318 322 316 307 314 322 323 322 323 323 320 309 294 276 258 252 231 222 223 207 200 197 198 242 266
189 186 186 186 193 194 194 189 181 194 257 287 322 336 346 339 329 329 331 327 326 328 335 339 342 342 342 337 339 326 309 307 283 265 247 235 235 221 211 202 196 198 233
194 189 188 192 196 195 193 186 176 183 209 237 290 13 336 329 333 345 348 344 343 349 354 359 359 359 0 356 359 341 325 334 317 290 274 263 253 246 220 209 212 208 212
191 192 195 198 195 187 182 179 180 179 197 216 236 15 337 340 355 353 341 345 350 356 5 6 11 13 11 8 13 359 359 354 335 336 329 301 282 260 239 223 220 221 212
190 192 192 192 191 192 191 189 190 191 206 206 187 354 349 5 9 351 342 351 357 359 6 14 19 17 13 11 13 3 360 356 343 333 335 315 309 288 273 249 240 233 223
188 189 192 196 201 203 201 197 198 202 204 189 171 119 2 6 353 334 338 352 358 359 7 15 15 10 6 6 5 1 353 348 334 324 316 304 312 298 282 271 252 242 239
189 188 198 210 213 210 204 201 206 204 193 184 180 195 235 248 285 316 335 341 348 355 355 356 355 354 357 359 356 356 354 352 348 342 328 308 304 283 278 274 265 251 241
198 197 203 212 215 212 210 204 206 203 189 182 192 212 222 227 270 325 326 329 343 346 340 344 345 344 345 346 350 349 352 354 354 351 345 325 319 311 302 274 260 251 242
202 202 203 204 206 204 203 200 205 203 185 186 203 212 214 224 254 283 302 324 336 336 337 336 335 338 337 342 348 351 348 346 349 343 337 335 341 348 346 329 292 249 233
199 196 199 200 202 200 196 196 202 193 185 195 207 208 208 219 241 259 288 306 311 316 316 316 325 321 316 328 339 348 354 346 340 339 338 341 348 353 342 341 345 322 289
189 193 195 198 201 198 196 193 185 179 185 198 209 212 209 219 233 246 268 279 283 287 291 296 304 307 311 322 331 341 357 349 345 344 339 332 328 335 343 345 344 334 322
181 186 185 182 181 184 180 160 165 175 184 202 213 216 211 216 225 242 256 261 267 279 278 281 289 293 301 312 319 332 348 346 341 338 342 344 337 337 354 359 340 327 322
160 158 151 144 156 173 156 145 160 172 198 212 215 215 211 212 224 236 246 248 247 263 281 287 283 275 282 294 303 311 341 333 328 331 335 343 344 340 348 346 333 325 317
155 146 137 142 167 166 150 150 163 199 217 212 208 213 218 221 228 238 243 249 259 279 291 293 291 282 275 285 287 275 218 257 301 315 319 321 333 337 335 331 305 298 306
152 144 138 146 158 155 149 155 195 228 221 207 213 229 236 237 233 232 251 253 256 276 288 297 300 291 283 274 278 269 244 225 245 282 291 301 318 325 327 324 314 317 328
159 149 142 135 124 137 142 155 230 229 200 205 236 254 263 261 252 239 250 259 253 254 272 277 284 290 287 279 274 271 260 248 239 266 282 300 314 321 320 316 319 326 329
153 143 133 132 129 110 115 168 257 187 154 197 260 278 287 294 288 265 249 247 252 253 262 264 266 275 284 276 267 264 265 267 272 287 301 311 315 313 301 307 314 311 283
151 139 137 134 119 89 66 33 31 97 109 27 328 318 308 304 307 299 265 249 245 235 240 253 250 253 273 268 235 216 228 231 249 286 316 325 326 325 320 314 304 296 295
141 132 129 124 112 88 63 31 29 73 87 59 14 351 335 329 325 320 321 303 290 311 300 287 279 264 261 276 259 238 237 239 249 293 303 305 304 301 301 302 303 293 277
Height
1528 1529 1528 1527 1526 1524 1522 1520 1518 1516 1514 1511 1508 1506 1504 1502 1500 1499 1497 1496 1494 1493 1492 1492 1491 1491 1491 1492 1492 1493 1494 1495 1497 1498 1499 1501 1503 1504 1506 1508 1510 1512 1515
1527 1527 1527 1526 1524 1523 1521 1520 1518 1515 1513 1510 1508 1506 1503 1501 1499 1497 1496 1494 1492 1491 1490 1490 1489 1489 1489 1489 1490 1490 1491 1492 1494 1495 1496 1498 1500 1500 1502 1504 1506 1508 1511
1525 1525 1525 1524 1523 1522 1521 1519 1517 1515 1513 1510 1508 1505 1503 1501 1498 1496 1494 1493 1491 1490 1489 1488 1487 1487 1487 1487 1487 1488 1488 1489 1491 1492 1495 1495 1495 1496 1498 1499 1501 1504 1506
1523 1523 1523 1523 1522 1521 1520 1518 1516 1514 1512 1510 1507 1505 1502 1500 1498 1495 1493 1492 1490 1489 1488 1487 1486 1485 1485 1485 1485 1485 1486 1487 1488 1489 1491 1493 1494 1495 1494 1496 1497 1500 1502
1521 1522 1522 1522 1521 1520 1519 1517 1516 1514 1512 1509 1507 1505 1502 1500 1497 1495 1493 1491 1489 1488 1487 1485 1485 1484 1483 1483 1483 1483 1483 1484 1485 1486 1488 1489 1491 1492 1493 1492 1494 1496 1498
1520 1521 1521 1521 1520 1520 1518 1517 1515 1513 1511 1509 1507 1504 1502 1499 1497 1495 1492 1490 1488 1487 1486 1485 1483 1482 1482 1481 1481 1481 1481 1482 1482 1483 1484 1486 1487 1488 1490 1490 1491 1492 1494
1519 1519 1519 1520 1519 1518 1518 1516 1515 1513 1511 1509 1507 1504 1502 1500 1497 1495 1492 1490 1488 1486 1485 1484 1482 1481 1480 1480 1479 1479 1479 1479 1480 1480 1481 1482 1484 1485 1487 1488 1488 1489 1490
1517 1518 1518 1518 1518 1517 1517 1516 1514 1512 1511 1508 1506 1504 1502 1500 1497 1495 1492 1490 1488 1486 1484 1483 1481 1480 1479 1478 1478 1477 1477 1477 1477 1478 1478 1479 1480 1482 1483 1484 1486 1486 1487
1516 1516 1517 1517 1517 1516 1516 1515 1513 1512 1510 1508 1506 1504 1502 1500 1498 1495 1493 1490 1488 1486 1484 1482 1480 1479 1478 1477 1476 1476 1475 1475 1475 1475 1476 1476 1477 1478 1479 1481 1482 1484 1483
1514 1515 1515 1515 1515 1515 1515 1514 1513 1511 1510 1508 1506 1504 1502 1500 1498 1496 1493 1491 1489 1486 1484 1482 1480 1479 1477 1476 1475 1475 1474 1473 1473 1473 1473 1473 1474 1474 1475 1477 1478 1479 1480
1512 1513 1514 1514 1514 1514 1514 1513 1512 1511 1510 1508 1506 1504 1503 1501 1498 1496 1494 1491 1489 1486 1484 1482 1480 1479 1477 1476 1475 1474 1473 1472 1471 1471 1471 1471 1471 1472 1472 1473 1474 1475 1476
1510 1511 1512 1512 1513 1513 1513 1512 1511 1510 1509 1508 1506 1504 1503 1501 1499 1496 1494 1492 1490 1487 1485 1483 1481 1479 1477 1476 1474 1473 1472 1471 1470 1470 1470 1469 1469 1469 1470 1470 1471 1471 1472
1508 1509 1510 1511 1511 1511 1511 1511 1510 1510 1509 1507 1506 1504 1503 1501 1499 1496 1494 1492 1490 1488 1486 1483 1481 1479 1477 1476 1474 1473 1471 1470 1469 1469 1468 1468 1468 1467 1467 1468 1468 1468 1468
1506 1507 1508 1509 1509 1510 1510 1510 1509 1509 1508 1507 1506 1504 1502 1501 1499 1497 1495 1493 1491 1489 1486 1484 1482 1480 1478 1476 1475 1473 1471 1470 1469 1468 1467 1467 1466 1466 1465 1465 1465 1465 1465
1504 1505 1506 1507 1507 1508 1508 1508 1508 1508 1507 1506 1505 1504 1502 1501 1499 1497 1495 1493 1491 1489 1487 1485 1483 1481 1479 1477 1475 1473 1472 1470 1469 1468 1467 1466 1465 1464 1463 1463 1462 1462 1462
1501 1502 1503 1504 1505 1506 1506 1507 1507 1506 1506 1505 1504 1503 1502 1500 1499 1497 1495 1493 1491 1489 1487 1485 1483 1481 1479 1478 1476 1474 1472 1470 1468 1467 1466 1465 1464 1463 1461 1461 1460 1460 1460
1499 1500 1501 1502 1503 1504 1505 1505 1505 1505 1505 1504 1504 1503 1501 1500 1498 1497 1495 1493 1491 1489 1487 1485 1483 1481 1480 1478 1476 1474 1472 1470 1468 1467 1465 1464 1463 1461 1460 1459 1459 1458 1458
1496 1497 1499 1500 1501 1502 1503 1504 1504 1504 1504 1503 1502 1502 1500 1499 1498 1496 1495 1493 1491 1489 1487 1485 1484 1482 1480 1478 1476 1474 1472 1470 1468 1467 1465 1463 1462 1460 1459 1458 1457 1456 1455
1494 1496 1497 1498 1499 1500 1501 1502 1502 1502 1502 1502 1501 1500 1499 1498 1497 1496 1494 1492 1491 1489 1487 1485 1484 1482 1480 1478 1476 1474 1472 1470 1468 1466 1465 1463 1461 1460 1458 1457 1456 1455 1454
1493 1494 1495 1496 1498 1499 1500 1500 1500 1501 1500 1500 1500 1499 1498 1497 1496 1495 1493 1492 1490 1489 1487 1485 1483 1481 1479 1478 1476 1474 1472 1470 1468 1466 1464 1463 1461 1459 1458 1456 1455 1453 1452
1491 1493 1494 1495 1496 1497 1498 1498 1499 1499 1499 1498 1498 1497 1496 1495 1494 1493 1492 1491 1489 1488 1486 1484 1483 1481 1479 1477 1475 1473 1471 1469 1468 1466 1464 1462 1461 1459 1457 1456 1454 1453 1451
1490 1491 1492 1493 1494 1495 1496 1496 1496 1497 1497 1496 1496 1495 1495 1494 1493 1491 1490 1489 1487 1486 1484 1483 1481 1479 1478 1476 1474 1472 1470 1469 1467 1465 1463 1462 1460 1458 1456 1455 1454 1452 1450
1488 1489 1490 1491 1492 1493 1494 1494 1494 1494 1494 1494 1493 1493 1492 1491 1490 1489 1488 1487 1485 1484 1482 1480 1479 1477 1476 1474 1472 1470 1469 1467 1465 1464 1462 1460 1458 1457 1455 1454 1453 1451 1450
1486 1487 1488 1489 1490 1491 1491 1491 1492 1492 1491 1491 1491 1490 1489 1488 1487 1486 1485 1483 1482 1481 1479 1478 1476 1475 1473 1472 1470 1468 1467 1465 1464 1462 1460 1459 1457 1455 1454 1452 1451 1450 1449
1483 1485 1486 1487 1488 1488 1488 1489 1489 1489 1488 1488 1487 1487 1486 1485 1483 1482 1482 1480 1479 1478 1476 1475 1473 1472 1470 1469 1468 1466 1464 1463 1462 1460 1458 1457 1455 1454 1452 1451 1449 1448 1447
1481 1482 1483 1484 1485 1485 1486 1486 1486 1486 1485 1485 1484 1483 1482 1481 1480 1479 1478 1477 1476 1474 1473 1471 1470 1468 1467 1466 1464 1463 1462 1461 1459 1458 1456 1454 1453 1451 1450 1448 1447 1446 1445